When you browse on this site, cookies collect data to enhance your experience and personalize the content and advertising you see.
Visit our Privacy Policy to learn more. By continuing to use the site, you agree to this use of cookies and data.
  • In Czech Republic
  • List of Countries
  • For 7 days
  • Water Temperature
  • Weather Map
  • Weather Widgets
  • user-avatar
    Login

    Hourly Weather Piraeus

    Today, 18 October, Friday

    Time Temperature Precipitation Wind Pressure Humidity
    00:00 +23°C° 0 mm 1 mps 761 mmHg 74%
    01:00 +22°C° 0 mm 1 mps 760 mmHg 75%
    02:00 +22°C° 0 mm 1 mps 761 mmHg 75%
    03:00 +22°C° 0 mm 1 mps 760 mmHg 76%
    04:00 +20°C° 0 mm 0 mps 760 mmHg 77%
    05:00 +19°C° 0 mm 0 mps 760 mmHg 78%
    06:00 +20°C° 0 mm 0 mps 760 mmHg 74%
    07:00 +20°C° 0 mm 0 mps 761 mmHg 71%
    08:00 +21°C° 0 mm 0 mps 761 mmHg 69%
    09:00 +24°C° 0 mm 1 mps 761 mmHg 65%
    10:00 +25°C° 0 mm 1 mps 761 mmHg 61%
    11:00 +26°C° 0 mm 2 mps 761 mmHg 57%
    12:00 +26°C° 0 mm 2 mps 761 mmHg 57%
    13:00 +27°C° 0 mm 3 mps 760 mmHg 56%
    14:00 +27°C° 0 mm 3 mps 760 mmHg 56%
    15:00 +27°C° 0 mm 4 mps 760 mmHg 57%
    16:00 +26°C° 0 mm 4 mps 760 mmHg 59%
    17:00 +26°C° 0 mm 4 mps 760 mmHg 61%
    18:00 +25°C° 0 mm 3 mps 760 mmHg 65%
    19:00 +24°C° 0 mm 2 mps 760 mmHg 70%
    20:00 +23°C° 0 mm 2 mps 760 mmHg 74%
    21:00 +23°C° 0 mm 1 mps 760 mmHg 75%
    22:00 +23°C° 0 mm 1 mps 760 mmHg 76%
    23:00 +23°C° 0 mm 1 mps 760 mmHg 77%

    Tomorrow, 19 October, Saturday

    Time Temperature Precipitation Wind Pressure Humidity
    00:00 +22°C° 0 mm 1 mps 760 mmHg 78%
    01:00 +22°C° 0 mm 1 mps 760 mmHg 78%
    02:00 +22°C° 0 mm 1 mps 760 mmHg 79%
    03:00 +22°C° 0.2 mm 1 mps 760 mmHg 79%
    04:00 +21°C° 0.2 mm 1 mps 760 mmHg 79%
    05:00 +21°C° 0.2 mm 1 mps 760 mmHg 80%
    06:00 +22°C° 0.1 mm 1 mps 760 mmHg 77%
    07:00 +22°C° 0.1 mm 1 mps 760 mmHg 74%
    08:00 +23°C° 0.1 mm 1 mps 760 mmHg 71%
    09:00 +24°C° 0 mm 1 mps 761 mmHg 66%
    10:00 +25°C° 0 mm 1 mps 761 mmHg 62%
    11:00 +26°C° 0 mm 1 mps 761 mmHg 57%
    12:00 +26°C° 0 mm 1 mps 761 mmHg 57%
    13:00 +26°C° 0 mm 2 mps 761 mmHg 57%
    14:00 +27°C° 0 mm 2 mps 760 mmHg 57%
    15:00 +26°C° 0.1 mm 2 mps 760 mmHg 59%
    16:00 +26°C° 0.1 mm 2 mps 760 mmHg 61%
    17:00 +26°C° 0.1 mm 2 mps 760 mmHg 63%
    18:00 +25°C° 0.1 mm 1 mps 760 mmHg 66%
    19:00 +24°C° 0.1 mm 1 mps 760 mmHg 70%
    20:00 +24°C° 0.1 mm 1 mps 761 mmHg 73%
    21:00 +23°C° 0 mm 1 mps 761 mmHg 75%
    22:00 +23°C° 0 mm 1 mps 761 mmHg 76%
    23:00 +21°C° 0 mm 0 mps 761 mmHg 77%

    Day after tomorrow, 20 October, Sunday

    Time Temperature Precipitation Wind Pressure Humidity
    00:00 +21°C° 0 mm 0 mps 761 mmHg 78%
    01:00 +20°C° 0 mm 0 mps 761 mmHg 79%
    02:00 +20°C° 0 mm 0 mps 761 mmHg 80%
    03:00 +22°C° 0 mm 1 mps 761 mmHg 80%
    04:00 +22°C° 0 mm 1 mps 761 mmHg 79%
    05:00 +22°C° 0 mm 1 mps 761 mmHg 79%
    06:00 +22°C° 0 mm 1 mps 761 mmHg 76%
    07:00 +21°C° 0 mm 2 mps 761 mmHg 74%
    08:00 +23°C° 0 mm 2 mps 761 mmHg 72%
    09:00 +24°C° 0 mm 1 mps 762 mmHg 66%
    10:00 +25°C° 0 mm 1 mps 762 mmHg 60%
    11:00 +26°C° 0 mm 1 mps 762 mmHg 54%
    12:00 +27°C° 0 mm 2 mps 762 mmHg 52%
    13:00 +27°C° 0 mm 2 mps 762 mmHg 49%
    14:00 +28°C° 0 mm 2 mps 761 mmHg 47%
    15:00 +27°C° 0 mm 2 mps 761 mmHg 48%
    16:00 +27°C° 0 mm 2 mps 761 mmHg 50%
    17:00 +27°C° 0 mm 1 mps 761 mmHg 51%
    18:00 +26°C° 0 mm 1 mps 761 mmHg 54%
    19:00 +25°C° 0 mm 1 mps 761 mmHg 57%
    20:00 +24°C° 0 mm 1 mps 761 mmHg 59%
    21:00 +24°C° 0 mm 1 mps 762 mmHg 59%
    22:00 +23°C° 0 mm 1 mps 762 mmHg 59%
    23:00 +23°C° 0 mm 2 mps 762 mmHg 58%

    21 October, Monday

    Time Temperature Precipitation Wind Pressure Humidity
    00:00 +23°C° 0 mm 2 mps 762 mmHg 58%
    01:00 +21°C° 0 mm 2 mps 761 mmHg 57%
    02:00 +21°C° 0 mm 2 mps 761 mmHg 56%
    03:00 +21°C° 0 mm 3 mps 761 mmHg 56%
    04:00 +21°C° 0 mm 3 mps 761 mmHg 57%
    05:00 +21°C° 0 mm 3 mps 761 mmHg 57%
    06:00 +21°C° 0 mm 3 mps 761 mmHg 56%
    07:00 +21°C° 0 mm 3 mps 761 mmHg 55%
    08:00 +22°C° 0 mm 3 mps 761 mmHg 54%
    09:00 +24°C° 0 mm 3 mps 762 mmHg 50%
    10:00 +25°C° 0 mm 3 mps 762 mmHg 46%
    11:00 +27°C° 0 mm 3 mps 762 mmHg 41%
    12:00 +27°C° 0 mm 4 mps 762 mmHg 41%
    13:00 +28°C° 0 mm 4 mps 761 mmHg 40%
    14:00 +28°C° 0 mm 4 mps 761 mmHg 40%
    15:00 +28°C° 0 mm 4 mps 761 mmHg 41%
    16:00 +27°C° 0 mm 4 mps 761 mmHg 43%
    17:00 +27°C° 0 mm 4 mps 761 mmHg 45%
    18:00 +25°C° 0 mm 4 mps 761 mmHg 49%
    19:00 +23°C° 0 mm 4 mps 761 mmHg 54%
    20:00 +22°C° 0 mm 3 mps 761 mmHg 58%
    21:00 +22°C° 0 mm 4 mps 761 mmHg 58%
    22:00 +21°C° 0 mm 4 mps 761 mmHg 59%
    23:00 +21°C° 0 mm 4 mps 761 mmHg 59%

    22 October, Tuesday

    Time Temperature Precipitation Wind Pressure Humidity
    00:00 +21°C° 0 mm 4 mps 760 mmHg 61%
    01:00 +21°C° 0 mm 4 mps 760 mmHg 62%
    02:00 +20°C° 0 mm 5 mps 760 mmHg 64%
    03:00 +20°C° 0 mm 5 mps 760 mmHg 66%
    04:00 +20°C° 0 mm 5 mps 760 mmHg 68%
    05:00 +19°C° 0 mm 5 mps 760 mmHg 70%
    06:00 +20°C° 0 mm 5 mps 760 mmHg 69%
    07:00 +20°C° 0 mm 5 mps 760 mmHg 68%
    08:00 +21°C° 0 mm 6 mps 761 mmHg 67%
    09:00 +22°C° 0 mm 6 mps 761 mmHg 60%
    10:00 +24°C° 0 mm 7 mps 761 mmHg 52%
    11:00 +26°C° 0 mm 8 mps 761 mmHg 45%
    12:00 +26°C° 0 mm 9 mps 761 mmHg 43%
    13:00 +26°C° 0 mm 9 mps 760 mmHg 41%
    14:00 +27°C° 0 mm 9 mps 760 mmHg 39%
    15:00 +26°C° 0 mm 9 mps 760 mmHg 41%
    16:00 +24°C° 0 mm 8 mps 760 mmHg 43%
    17:00 +24°C° 0 mm 7 mps 760 mmHg 45%
    18:00 +23°C° 0 mm 7 mps 760 mmHg 49%
    19:00 +22°C° 0 mm 6 mps 760 mmHg 53%
    20:00 +21°C° 0 mm 5 mps 760 mmHg 56%
    21:00 +21°C° 0 mm 5 mps 760 mmHg 58%
    22:00 +21°C° 0 mm 5 mps 760 mmHg 59%
    23:00 +20°C° 0 mm 5 mps 760 mmHg 60%

    23 October, Wednesday

    Time Temperature Precipitation Wind Pressure Humidity
    00:00 +20°C° 0 mm 5 mps 760 mmHg 60%
    01:00 +20°C° 0 mm 6 mps 760 mmHg 60%
    02:00 +20°C° 0 mm 6 mps 760 mmHg 60%
    03:00 +20°C° 0 mm 6 mps 760 mmHg 61%
    04:00 +20°C° 0 mm 6 mps 760 mmHg 61%
    05:00 +20°C° 0 mm 6 mps 760 mmHg 61%
    06:00 +20°C° 0 mm 6 mps 760 mmHg 60%
    07:00 +20°C° 0 mm 7 mps 760 mmHg 59%
    08:00 +21°C° 0 mm 7 mps 761 mmHg 58%
    09:00 +22°C° 0 mm 7 mps 761 mmHg 51%
    10:00 +23°C° 0 mm 8 mps 761 mmHg 45%
    11:00 +26°C° 0 mm 8 mps 761 mmHg 39%
    12:00 +26°C° 0 mm 9 mps 761 mmHg 38%
    13:00 +26°C° 0 mm 9 mps 760 mmHg 37%
    14:00 +26°C° 0 mm 9 mps 760 mmHg 36%
    15:00 +24°C° 0 mm 8 mps 760 mmHg 38%
    16:00 +24°C° 0 mm 8 mps 760 mmHg 40%
    17:00 +23°C° 0 mm 7 mps 760 mmHg 42%
    18:00 +22°C° 0 mm 6 mps 760 mmHg 46%
    19:00 +21°C° 0 mm 6 mps 760 mmHg 51%
    20:00 +20°C° 0 mm 5 mps 761 mmHg 55%
    21:00 +20°C° 0 mm 5 mps 761 mmHg 56%
    22:00 +20°C° 0 mm 5 mps 761 mmHg 56%
    23:00 +20°C° 0 mm 5 mps 761 mmHg 57%
    Show more